TimeFrame on Redefined Productions
Outwar Torax TimeFrame

Torax TimeFrame

96 Gods Updated: 2019-08-19 13:00:32
NameTime LeftWindow Opens
Old World Drake73d 02:402019-06-07 11:46:00
Quiver, The Renegade1d 08:132019-08-18 06:13:00
Lord Suka1d 00:572019-08-18 13:29:00
Amalgamated Apparition0d 20:492019-08-18 17:37:00
Anvilfist0d 20:182019-08-18 18:08:00
Kretok, Descendant of Nature0d 15:242019-08-18 23:02:00
Jazzmin, Maiden of Vitality0d 13:042019-08-19 01:22:00
Zikkir the Dark Archer0d 06:342019-08-19 07:52:00
Nessam0d 05:582019-08-19 08:28:00
Bloodchill the Grizzly0d 05:492019-08-19 08:37:00
Freezebreed, The Frozen Manipulator0d 05:102019-08-19 09:16:00
Pinosis0d 02:292019-08-19 11:57:00
Lord Varan0d 02:172019-08-19 12:09:00
Balerion, Dragon of Dread0d 01:292019-08-19 12:57:00
Lord Sibannac0d 01:042019-08-19 13:22:00
Synge, The Red Dragon0d 00:482019-08-19 13:38:00
Lady Ariella0d 00:422019-08-19 15:09:00
Detox0d 01:342019-08-19 16:01:00
King Ashnar, Lord of the Unliving0d 02:322019-08-19 16:59:00
Nayark the Mummified Sorcerer0d 03:192019-08-19 17:46:00
Ebliss, Fallen Angel of Despair0d 03:252019-08-19 17:52:00
Karvaz, Lord of Alsayic0d 04:212019-08-19 18:48:00
Zertan, The Collector0d 04:422019-08-19 19:09:00
Gorganus of the Wood0d 05:062019-08-19 19:33:00
Threk, King of Lords0d 05:082019-08-19 19:35:00
Nar Zhul, Slayer of All0d 05:222019-08-19 19:49:00
Lord Narada0d 05:392019-08-19 20:06:00
Crane0d 07:592019-08-19 22:26:00
Dreg nor, Keeper of the Infernal Essence0d 08:042019-08-19 22:31:00
Tsort0d 08:072019-08-19 22:34:00
Brutalitar, Lord of the Underworld0d 08:242019-08-19 22:51:00
Baron Mu, Dark Rider of the Undead0d 08:462019-08-19 23:13:00
Garland, The Lord Keeper0d 08:492019-08-19 23:16:00
Melt Bane, The Forbidden Demon Dragon0d 09:402019-08-20 00:07:00
Shadow0d 09:502019-08-20 00:17:00
Numerocure, The Black Messenger of Evil0d 10:282019-08-20 00:55:00
Lady Chaos, Queen of the Abyss0d 14:332019-08-20 05:00:00
Gnorb0d 14:372019-08-20 05:04:00
Grivvek, Protector of the Brood0d 18:512019-08-20 09:18:00
Windstrike The Vile0d 19:072019-08-20 09:34:00
Felroc, Overseer of Hellfire0d 19:512019-08-20 10:18:00
Ancient Magus Tarkin0d 20:422019-08-20 11:09:00
Jorun the Blazing Swordsman0d 22:212019-08-20 12:48:00
Raiyar, the Shadow Master0d 23:012019-08-20 13:28:00
Anguish1d 00:032019-08-20 14:30:00
Keeper of Nature1d 01:392019-08-20 16:06:00
Mistress of the Sword1d 02:572019-08-20 17:24:00
Tylos, The Lord Master1d 03:442019-08-20 18:11:00
Sarcrina the Astral Priestess1d 03:552019-08-20 18:22:00
Skybrine The Inescapable1d 07:172019-08-20 21:44:00
The Emerald Assassin1d 08:352019-08-20 23:02:00
Sylvanna TorLai1d 09:192019-08-20 23:46:00
Crolvak, the Fire Master1d 09:392019-08-21 00:06:00
Ormsul the Putrid1d 10:122019-08-21 00:39:00
Viserion, the Necrodragon1d 10:322019-08-21 00:59:00
Volgan the Living Ironbark1d 10:362019-08-21 01:03:00
Rotborn, Eater of the Dead1d 11:202019-08-21 01:47:00
Rancid, Lord of Thugs1d 11:482019-08-21 02:15:00
Archdevil Yirkon1d 12:542019-08-21 03:21:00
Howldroid, Tormentor of the Pit1d 13:332019-08-21 04:00:00
Smoot the Yeti1d 14:252019-08-21 04:52:00
Sigil, Lich of Woe1d 17:162019-08-21 07:43:00
Dexor, Victor of Veldara1d 19:262019-08-21 09:53:00
Ganja the Stone Golem1d 19:492019-08-21 10:16:00
Samatha Dark-Soul1d 20:132019-08-21 10:40:00
Murderface1d 20:192019-08-21 10:46:00
Traxodon the Plaguebringer1d 20:552019-08-21 11:22:00
Terrance, Rebel of Rallis2d 02:412019-08-21 17:08:00
Nafir, God of Desolation2d 03:012019-08-21 17:28:00
Great Lord Ganeshan2d 09:192019-08-21 23:46:00
Varsanor, Master of Darkness2d 12:252019-08-22 02:52:00
Lord Xordam2d 13:512019-08-22 04:18:00
Akkel the Enflamed Warrior2d 19:092019-08-22 09:36:00
Hackerphage, Protector of the Gateway2d 22:042019-08-22 12:31:00
Emperor Neudeus, Controller of the Universe3d 02:242019-08-22 16:51:00
Xynak, the Arcane Master3d 05:262019-08-22 19:53:00
Slashbrood, Devourer of the Blackness3d 06:232019-08-22 20:50:00
Ag Nabak the Abomination3d 17:552019-08-23 08:22:00
Esquin, the Kinetic Master3d 19:272019-08-23 09:54:00
Bolkor, the Holy Master3d 20:032019-08-23 10:30:00
Q-SEC Commander3d 22:132019-08-23 12:40:00
Kro Shuk, Doomslayer4d 05:512019-08-23 20:18:00
Dlanod, the Crazed Chancellor4d 06:112019-08-23 20:38:00
Lacuste of the Swarm4d 08:272019-08-23 22:54:00
Straya, the Underworld Ruler4d 15:212019-08-24 05:48:00
Skarthul the Avenged5d 00:552019-08-24 15:22:00
Shaik, Servant of Arkron121d 19:182019-04-19 19:08:00
Rook, Hand of Arkron121d 17:422019-04-19 20:44:00
Animated Captain73d 03:132019-06-07 11:13:00
Jade Dragonite73d 01:432019-06-07 12:43:00
Beast of Cards63d 23:322019-06-16 14:54:00
Noxious Slug62d 11:042019-06-18 03:22:00
Crantos, Defender of Ultimation5d 05:412019-08-14 08:45:00
Hyrak, Bringer of Nightmares3d 22:362019-08-15 15:50:00
Vitkros, Hydra of the Deep3d 11:472019-08-16 02:39:00
Wanhiroeaz the Devourer3d 11:132019-08-16 03:13:00